Retour au catalogue

STARLINK-2424

ActifCommunicationsVLEO
NORAD 47834·PAYLOAD·🇺🇸 United States

Lancé Mar 11, 2021 depuis Cape Canaveral Space Force Station

Loading…

Prochains Passages (prochaines 24 heures)

TLE

FraisSource: CelesTrak SupGP

Époque: Sep 14, 2026, 20:54 UTC

1 47834C 21018AZ  26257.87131944  .00015772  00000+0  50725-3 0  2577
2 47834  53.1590  84.6426 0001297  80.7400  14.6177 15.31690962    18

Suivez STARLINK-2424 en temps réel avec AllMySat

Download on the App Store